TimeEDT,TemperatureF,Dew PointF,Humidity,Sea Level PressureIn,VisibilityMPH,Wind Direction,Wind SpeedMPH,Gust SpeedMPH,PrecipitationIn,Events,Conditions,WindDirDegrees,DateUTC
12:51 AM,55.0,32.0,42,29.80,10.0,WNW,20.7,33.4,N/A,,Mostly Cloudy,300,2014-05-05 04:51:00
1:51 AM,54.0,34.0,47,29.81,10.0,NW,12.7,21.9,N/A,,Overcast,310,2014-05-05 05:51:00
2:51 AM,53.1,35.1,50,29.81,10.0,NW,10.4,24.2,N/A,,Overcast,320,2014-05-05 06:51:00
3:51 AM,52.0,37.0,57,29.82,10.0,NW,9.2,21.9,N/A,,Clear,310,2014-05-05 07:51:00
4:51 AM,51.8,37.4,58,29.83,10.0,NNW,5.8,-,N/A,,Clear,330,2014-05-05 08:51:00
5:51 AM,51.1,37.0,59,29.85,10.0,NW,6.9,-,N/A,,Clear,320,2014-05-05 09:51:00
6:51 AM,52.0,37.0,57,29.88,10.0,NW,9.2,16.1,N/A,,Clear,310,2014-05-05 10:51:00
7:51 AM,53.6,37.4,54,29.89,10.0,NW,13.8,23.0,N/A,,Clear,320,2014-05-05 11:51:00
8:51 AM,55.9,37.0,49,29.90,10.0,NNW,17.3,23.0,N/A,,Clear,330,2014-05-05 12:51:00
9:51 AM,57.9,37.0,46,29.89,10.0,NW,15.0,23.0,N/A,,Clear,320,2014-05-05 13:51:00
10:51 AM,61.0,37.9,42,29.88,10.0,NW,16.1,27.6,N/A,,Clear,310,2014-05-05 14:51:00
11:51 AM,62.1,37.9,41,29.88,10.0,NNW,11.5,24.2,N/A,,Clear,330,2014-05-05 15:51:00
12:51 PM,64.0,37.0,37,29.87,10.0,WNW,9.2,20.7,N/A,,Clear,300,2014-05-05 16:51:00
1:51 PM,64.9,35.1,33,29.85,10.0,North,9.2,-,N/A,,Clear,350,2014-05-05 17:51:00
2:51 PM,68.0,36.0,31,29.83,10.0,NNW,10.4,-,N/A,,Clear,340,2014-05-05 18:51:00
3:51 PM,69.1,35.1,29,29.81,10.0,WNW,12.7,17.3,N/A,,Clear,290,2014-05-05 19:51:00
4:51 PM,70.0,32.0,25,29.80,10.0,NNW,8.1,19.6,N/A,,Clear,330,2014-05-05 20:51:00
5:51 PM,68.0,27.0,21,29.81,10.0,WNW,12.7,21.9,N/A,,Clear,290,2014-05-05 21:51:00
6:51 PM,66.9,26.1,21,29.81,10.0,WNW,8.1,-,N/A,,Clear,300,2014-05-05 22:51:00
7:51 PM,64.9,26.1,23,29.83,10.0,NW,10.4,-,N/A,,Clear,310,2014-05-05 23:51:00
8:51 PM,64.0,25.0,23,29.85,10.0,NW,10.4,-,N/A,,Clear,310,2014-05-06 00:51:00
9:51 PM,59.0,26.1,28,29.87,10.0,WNW,6.9,-,N/A,,Clear,300,2014-05-06 01:51:00
10:51 PM,59.0,26.1,28,29.88,10.0,NNW,6.9,-,N/A,,Clear,330,2014-05-06 02:51:00
11:51 PM,57.0,26.1,30,29.89,10.0,NNW,4.6,-,N/A,,Clear,330,2014-05-06 03:51:00